Terminal Aerodrome Forecast
Issued by NWS Blacksburg, VA

Current Version | Previous Version | Graphics & Text | Print | Product List | Glossary On
Versions: 1 2 3 4 5 6 7 8 9 10 11 12 13 14 15 16 17 18 19 20 21 22 23 24 25 26 27 28 29 30
000
FTUS41 KRNK 042215 AAA
TAFBLF
TAF AMD
KBLF 042215Z 0422/0518 00000KT P6SM SCT040
     FM050300 12003KT P6SM VCSH SCT040 BKN080
     FM050600 11004KT 6SM BR SCT015 OVC040
     FM051000 11004KT 4SM BR OVC020
     FM051500 10005KT P6SM SCT015 OVC030=

USA.gov is the U.S. government's official web portal to all federal, state and local government web resources and services.